TimeCET,TemperatureF,Dew PointF,Humidity,Sea Level PressureIn,VisibilityMPH,Wind Direction,Wind SpeedMPH,Gust SpeedMPH,PrecipitationIn,Events,Conditions,WindDirDegrees,DateUTC
12:00 AM,35.6,32.0,87,30.01,6.2,North,3.5,-,N/A,,Mostly Cloudy,360,2013-02-25 23:00:00
12:30 AM,35.6,32.0,87,30.04,6.2,North,5.8,-,N/A,,Unknown,10,2013-02-25 23:30:00
1:00 AM,35.6,32.0,87,30.04,6.2,North,5.8,-,N/A,,Mostly Cloudy,10,2013-02-26 00:00:00
1:30 AM,37.4,32.0,81,30.04,6.2,NNW,3.5,-,N/A,,Overcast,340,2013-02-26 00:30:00
2:00 AM,37.4,32.0,81,30.04,6.2,North,4.6,-,N/A,,Overcast,360,2013-02-26 01:00:00
2:30 AM,37.4,30.2,75,30.04,6.2,North,4.6,-,N/A,,Overcast,350,2013-02-26 01:30:00
3:00 AM,37.4,30.2,75,30.04,6.2,North,4.6,-,N/A,,Overcast,360,2013-02-26 02:00:00
3:30 AM,35.6,30.2,81,30.04,6.2,NNW,3.5,-,N/A,,Overcast,340,2013-02-26 02:30:00
4:00 AM,35.6,30.2,81,30.04,6.2,NNW,4.6,-,N/A,,Mostly Cloudy,340,2013-02-26 03:00:00
4:30 AM,35.6,30.2,81,30.04,6.2,North,3.5,-,N/A,,Overcast,360,2013-02-26 03:30:00
5:00 AM,35.6,30.2,81,30.04,6.2,North,4.6,-,N/A,,Mostly Cloudy,10,2013-02-26 04:00:00
5:30 AM,37.4,30.2,75,30.04,6.2,North,3.5,-,N/A,,Mostly Cloudy,350,2013-02-26 04:30:00
6:00 AM,37.4,30.2,75,30.04,6.2,North,5.8,-,N/A,,Overcast,10,2013-02-26 05:00:00
6:30 AM,37.4,30.2,75,30.04,6.2,North,5.8,-,N/A,,Overcast,10,2013-02-26 05:30:00
7:00 AM,37.4,30.2,75,30.04,6.2,North,5.8,-,N/A,,Mostly Cloudy,10,2013-02-26 06:00:00
7:30 AM,39.2,32.0,75,30.04,6.2,North,4.6,-,N/A,Rain,Light Rain,10,2013-02-26 06:30:00
8:00 AM,44.6,32.0,61,30.06,6.2,NE,6.9,-,N/A,,Overcast,40,2013-02-26 07:00:00
8:30 AM,44.6,33.8,66,30.09,6.2,Variable,4.6,16.1,N/A,Rain,Light Rain,0,2013-02-26 07:30:00
9:00 AM,44.6,33.8,66,30.09,6.2,Variable,3.5,-,N/A,Rain,Light Rain,0,2013-02-26 08:00:00
9:30 AM,42.8,35.6,76,30.09,6.2,Variable,3.5,-,N/A,Rain,Rain,0,2013-02-26 08:30:00
10:00 AM,44.6,33.8,66,30.09,6.2,Variable,1.2,-,N/A,Thunderstorm,Overcast,0,2013-02-26 09:00:00
10:30 AM,42.8,35.6,76,30.09,6.2,NNE,3.5,-,N/A,Rain,Light Rain,30,2013-02-26 09:30:00
11:00 AM,46.4,33.8,62,30.09,6.2,Variable,4.6,-,N/A,,Mostly Cloudy,0,2013-02-26 10:00:00
11:30 AM,48.2,35.6,62,30.09,6.2,North,5.8,-,N/A,,Mostly Cloudy,360,2013-02-26 10:30:00
12:00 PM,51.8,33.8,50,30.09,6.2,NNE,6.9,-,N/A,,Mostly Cloudy,30,2013-02-26 11:00:00
12:30 PM,51.8,30.2,44,30.09,6.2,ENE,9.2,-,N/A,,Mostly Cloudy,70,2013-02-26 11:30:00
1:00 PM,53.6,30.2,41,30.09,6.2,NE,9.2,-,N/A,,Mostly Cloudy,50,2013-02-26 12:00:00
1:30 PM,53.6,28.4,38,30.06,6.2,NE,9.2,-,N/A,,Scattered Clouds,40,2013-02-26 12:30:00
2:00 PM,53.6,26.6,35,30.06,6.2,East,11.5,-,N/A,,Unknown,80,2013-02-26 13:00:00
2:30 PM,51.8,30.2,44,30.06,6.2,East,10.4,-,N/A,,Mostly Cloudy,90,2013-02-26 13:30:00
3:00 PM,51.8,30.2,44,30.06,6.2,East,6.9,-,N/A,,Unknown,90,2013-02-26 14:00:00
3:30 PM,51.8,32.0,47,30.06,6.2,East,6.9,-,N/A,,Overcast,100,2013-02-26 14:30:00
4:00 PM,53.6,32.0,44,30.06,6.2,ESE,9.2,-,N/A,,Overcast,110,2013-02-26 15:00:00
4:30 PM,51.8,32.0,47,30.09,6.2,East,8.1,-,N/A,,Unknown,90,2013-02-26 15:30:00
5:00 PM,51.8,32.0,47,30.09,6.2,East,4.6,-,N/A,,Mostly Cloudy,90,2013-02-26 16:00:00
5:30 PM,50.0,32.0,50,30.09,6.2,Variable,3.5,-,N/A,,Mostly Cloudy,0,2013-02-26 16:30:00
6:00 PM,50.0,32.0,50,30.09,6.2,NE,3.5,-,N/A,,Partly Cloudy,40,2013-02-26 17:00:00
6:30 PM,46.4,33.8,62,30.12,6.2,North,3.5,-,N/A,,Mostly Cloudy,10,2013-02-26 17:30:00
7:00 PM,46.4,33.8,62,30.12,6.2,Variable,2.3,-,N/A,,Overcast,0,2013-02-26 18:00:00
7:30 PM,44.6,35.6,71,30.12,6.2,NNE,3.5,-,N/A,,Overcast,20,2013-02-26 18:30:00
8:00 PM,44.6,35.6,71,30.12,6.2,North,4.6,-,N/A,,Overcast,10,2013-02-26 19:00:00
8:30 PM,44.6,35.6,71,30.15,6.2,NNE,4.6,-,N/A,,Overcast,20,2013-02-26 19:30:00
9:00 PM,44.6,35.6,71,30.15,6.2,Variable,2.3,-,N/A,,Overcast,0,2013-02-26 20:00:00
9:30 PM,42.8,35.6,76,30.15,6.2,North,3.5,-,N/A,,Mostly Cloudy,10,2013-02-26 20:30:00
10:00 PM,41.0,35.6,81,30.15,5.0,Variable,2.3,-,N/A,,Mostly Cloudy,0,2013-02-26 21:00:00
10:30 PM,41.0,35.6,81,30.15,6.2,North,3.5,-,N/A,,Partly Cloudy,10,2013-02-26 21:30:00
11:00 PM,39.2,33.8,81,30.15,5.6,Variable,3.5,-,N/A,,Unknown,0,2013-02-26 22:00:00
11:30 PM,37.4,33.8,87,30.15,6.2,North,4.6,-,N/A,,Unknown,350,2013-02-26 22:30:00